Location: Cardiff
(53.7833°N, 113.6000°W)
Time: 20:28:24
(UTC+00:00)

RS-15 - Pass Details

Date: 07 December 2023
Orbit: 1893 x 2151 km, 64.8° (Epoch: 24 February)

Event Time Altitude Azimuth Distance (km) Brightness Sun altitude
Rises 07:30:45 0° 272° (W) 5,618 10.4 -58.8°
Enters shadow 07:31:43 - 274° (W) 5,348 10.3 -58.8°
Exits shadow 07:53:25 23° 57° (ENE) 3,480 9.4 -58.4°
Drops below altitude 10° 07:56:57 10° 67° (ENE) 4,388 10.0 -58.2°
Sets 08:00:25 0° 73° (ENE) 5,358 10.6 -58.1°
